1501268400.26,35741,19.31,73732.0,2.69,2.31,2.31,0,*74
1501268401.46,35742,19.31,73712.3,2.69,2.35,2.35,0,*77
1501268402.67,35743,19.31,73712.8,2.71,2.35,2.39,0,*73
1501268403.87,35744,19.31,73722.0,2.71,2.35,2.39,0,*74
1501268405.13,35745,19.31,73740.5,2.73,2.39,2.39,0,*7B
1501268406.39,35746,19.31,73744.8,2.73,2.25,2.25,0,*78
1501268407.65,35747,19.31,73742.8,2.73,2.05,2.05,0,*79
1501268408.88,35748,19.31,73736.5,2.71,2.01,2.05,0,*70
1501268410.11,35749,19.31,73724.3,2.71,2.05,2.17,0,*76
1501268411.37,35750,19.31,73722.8,2.73,2.01,2.01,0,*7F
1501268412.63,35751,19.31,73724.5,2.73,2.05,2.01,0,*7A
1501268413.85,35752,19.31,73720.5,2.71,2.05,2.01,0,*7B
1501268415.08,35753,19.31,73712.0,2.71,2.01,2.01,0,*7E
1501268416.34,35754,19.31,73722.3,2.73,2.05,2.05,0,*7B
1501268417.6,35755,19.31,73712.5,2.73,2.05,2.13,0,*7D
1501268418.86,35756,19.31,73706.0,2.73,2.05,2.05,0,*79
1501268420.12,35757,19.31,73712.3,2.73,2.05,2.17,0,*7B
1501268421.32,35758,19.31,73716.8,2.75,2.21,2.27,0,*77
1501268422.56,35759,19.31,73728.8,2.73,2.27,2.25,0,*74
1501268423.74,35760,19.31,73736.0,2.75,2.31,2.31,0,*7A
1501268424.92,35761,19.31,73736.8,2.75,2.27,2.31,0,*7C
1501268426.09,35762,19.31,73734.8,2.75,2.31,2.31,0,*78
1501268427.3,35763,19.31,73734.5,2.75,2.27,2.21,0,*7F
1501268428.48,35764,19.31,73726.5,2.75,2.27,2.31,0,*79
1501268429.66,35765,19.38,73732.0,2.75,2.31,2.27,0,*78
1501268430.83,35766,19.31,73732.5,2.79,2.35,2.35,0,*70
1501268432.01,35767,19.31,73726.0,2.79,2.35,2.35,0,*71
1501268433.24,35768,19.31,73726.0,2.79,2.21,2.13,0,*7F
1501268434.47,35769,19.31,73730.3,2.75,2.05,2.05,0,*73
1501268435.67,35770,19.31,73732.0,2.79,1.41,1.47,0,*71
1501268436.86,35771,19.31,73740.0,2.75,1.05,1.05,0,*7A
1501268438.03,35772,19.38,73740.0,2.75,0.97,0.97,0,*79
1501268439.25,35773,19.31,73738.0,2.71,0.33,0.21,0,*7F
1501268440.47,35774,19.31,73740.3,2.71,0.79,0.83,0,*7E
1501268441.72,35775,19.38,73734.5,2.69,1.25,1.25,0,*73
1501268442.97,35776,19.38,73742.3,2.69,1.63,1.59,0,*79
1501268444.18,35777,19.31,73732.3,2.69,1.75,1.75,0,*71
1501268445.43,35778,19.38,73736.5,2.69,1.59,1.59,0,*7E
1501268446.68,35779,19.31,73734.0,2.67,1.85,1.93,0,*76
1501268447.9,35780,19.38,73732.0,2.69,1.51,1.41,0,*78
1501268449.17,35781,19.31,73732.8,2.69,1.13,1.09,0,*73
1501268450.38,35782,19.31,73734.0,2.67,0.41,0.43,0,*77
1501268451.6,35783,19.31,73726.3,2.65,0.87,0.83,0,*72
1501268452.78,35784,19.38,73730.5,2.65,0.97,1.05,0,*4B
1501268454.0,35785,19.31,73720.0,2.65,1.59,1.67,0,*7D
1501268455.22,35786,19.31,73730.3,2.65,1.89,1.93,0,*78
1501268456.48,35787,19.31,73726.8,2.67,2.13,2.09,0,*7B
1501268457.73,35788,19.31,73734.3,2.67,2.25,2.25,0,*7F
1501268458.98,35789,19.31,73740.5,2.67,2.25,2.25,0,*7E
1501268460.23,35790,19.31,73736.5,2.67,2.09,2.09,0,*76
1501268461.48,35791,19.38,73750.3,2.69,2.09,2.09,0,*79
1501268462.74,35792,19.38,73742.5,2.69,2.13,2.25,0,*7F
1501268463.96,35793,19.38,73738.0,2.69,2.25,2.31,0,*7E
1501268465.17,35794,19.31,73748.8,2.69,2.31,2.31,0,*7C
1501268466.37,35795,19.31,73738.3,2.69,2.31,2.35,0,*79
1501268467.57,35796,19.31,73760.5,2.69,2.35,2.35,0,*7E
1501268468.8,35797,19.38,73762.3,2.71,2.39,2.47,0,*7F
1501268470.07,35798,19.31,73766.3,2.73,2.51,2.59,0,*73
1501268471.3,35799,19.31,73752.3,2.71,2.39,2.39,0,*78
1501268472.54,35800,19.31,73752.8,2.73,1.85,1.79,0,*76
1501268473.79,35801,19.31,73746.5,2.73,1.51,1.55,0,*70
1501268475.02,35802,19.38,73746.8,2.71,1.63,1.63,0,*75
1501268476.24,35803,19.38,73742.5,2.71,1.63,1.67,0,*70
1501268477.47,35804,19.38,73740.3,2.71,1.63,1.63,0,*73
1501268478.66,35805,19.38,73742.0,2.71,1.43,1.41,0,*70
1501268479.87,35806,19.31,73738.0,2.71,1.41,1.33,0,*74
1501268481.09,35807,19.31,73746.8,2.71,1.43,1.51,0,*73
1501268482.3,35808,19.31,73742.0,2.71,1.79,1.85,0,*7C
1501268483.56,35809,19.38,73746.0,2.69,2.01,2.01,0,*77
1501268484.81,35810,19.38,73732.3,2.69,2.21,2.25,0,*7B
1501268486.06,35811,19.31,73730.0,2.69,2.21,2.25,0,*7A
1501268487.26,35812,19.31,73744.5,2.69,2.31,2.31,0,*7D
1501268488.49,35813,19.31,73730.5,2.71,2.39,2.39,0,*75
1501268489.75,35814,19.38,73738.5,2.73,2.39,2.47,0,*79
1501268491.01,35815,19.38,73748.0,2.73,2.39,2.39,0,*71
1501268492.28,35816,19.38,73758.0,2.73,2.47,2.51,0,*75
1501268493.52,35817,19.38,73742.8,2.73,2.51,2.61,0,*70
1501268494.74,35818,19.38,73746.0,2.73,2.61,2.61,0,*7C
1501268495.94,35819,19.38,73738.3,2.75,2.73,2.65,0,*7C
1501268497.18,35820,19.38,73726.3,2.75,2.81,2.89,0,*79
1501268498.42,35821,19.38,73738.0,2.79,3.15,3.15,0,*7C
1501268499.66,35822,19.38,73730.3,2.79,3.03,3.15,0,*78
1501268500.84,35823,19.38,73734.5,2.83,2.95,2.91,0,*7F
1501268502.02,35824,19.38,73736.8,2.83,2.95,2.95,0,*7C
1501268503.25,35825,19.38,73732.8,2.81,2.85,2.91,0,*7A
1501268504.45,35826,19.38,73724.5,2.83,2.89,2.95,0,*73
1501268505.7,35827,19.38,73744.8,2.81,2.77,2.77,0,*7D
1501268506.93,35828,19.38,73734.5,2.87,2.81,2.77,0,*7D
1501268508.17,35829,19.38,73732.8,2.85,2.59,2.61,0,*7C
1501268509.43,35830,19.38,73736.5,2.85,2.39,2.39,0,*7F
1501268510.69,35831,19.38,73742.3,2.85,2.17,2.13,0,*7A
1501268511.94,35832,19.38,73746.0,2.85,1.51,1.43,0,*7E
1501268513.19,35833,19.38,73750.3,2.85,1.43,1.43,0,*7C
1501268514.41,35834,19.38,73732.8,2.83,1.43,1.43,0,*7D
1501268515.67,35835,19.38,73734.5,2.81,1.25,1.25,0,*7E
1501268516.92,35836,19.38,73746.3,2.81,1.47,1.47,0,*7D
1501268518.17,35837,19.38,73744.5,2.81,1.51,1.59,0,*74
1501268519.37,35838,19.38,73740.8,2.81,1.41,1.41,0,*73
1501268520.54,35839,19.38,73736.5,2.79,1.41,1.41,0,*75
1501268521.78,35840,19.38,73730.8,2.75,1.55,1.55,0,*77
1501268522.96,35841,19.38,73728.5,2.75,1.79,1.79,0,*76
1501268524.18,35842,19.38,73736.3,2.75,1.89,1.89,0,*75
1501268525.41,35843,19.38,73746.5,2.79,2.09,2.05,0,*74
1501268526.64,35844,19.38,73752.0,2.75,1.89,1.89,0,*73
1501268527.86,35845,19.38,73748.3,2.75,1.93,1.93,0,*72
1501268529.09,35846,19.38,73750.3,2.75,1.67,1.59,0,*7C
1501268530.31,35847,19.38,73752.8,2.75,1.59,1.59,0,*70
1501268531.54,35848,19.38,73746.3,2.75,1.55,1.55,0,*7F
1501268532.73,35849,19.38,73742.3,2.75,1.79,1.79,0,*7E
1501268533.96,35850,19.38,73748.5,2.75,1.93,2.01,0,*7E
1501268535.2,35851,19.38,73748.8,2.79,2.13,2.13,0,*7B
1501268536.4,35852,19.38,73746.3,2.75,2.21,2.27,0,*72
1501268537.63,35853,19.38,73746.5,2.75,2.39,2.39,0,*75
1501268538.87,35854,19.38,73750.8,2.79,2.47,2.43,0,*7A
1501268540.1,35855,19.38,73770.5,2.79,2.43,2.47,0,*7B
1501268541.33,35856,19.38,73748.0,2.79,2.55,2.59,0,*70
1501268542.52,35857,19.38,73758.5,2.79,2.65,2.65,0,*7D
1501268543.75,35858,19.38,73766.0,2.79,2.55,2.59,0,*7E
1501268545.01,35859,19.38,73770.8,2.81,2.59,2.59,0,*74
1501268546.27,35860,19.38,73768.8,2.81,2.55,2.55,0,*7E
1501268547.45,35861,19.38,73766.3,2.83,2.61,2.61,0,*7D
1501268548.66,35862,19.38,73764.5,2.83,2.59,2.61,0,*75
1501268549.9,35863,19.38,73766.5,2.83,2.51,2.51,0,*7F
1501268551.11,35864,19.38,73770.5,2.83,2.61,2.59,0,*73
1501268552.34,35865,19.38,73760.0,2.83,2.59,2.59,0,*79
1501268553.55,35866,19.38,73760.3,2.83,2.59,2.61,0,*71
1501268554.73,35867,19.38,73756.5,2.83,2.61,2.61,0,*7B
1501268555.99,35868,19.38,73750.5,2.85,2.59,2.59,0,*72
1501268557.23,35869,19.38,73762.0,2.85,2.59,2.61,0,*78
1501268558.42,35870,19.38,73742.8,2.87,2.61,2.61,0,*79
1501268559.63,35871,19.38,73748.0,2.85,2.61,2.61,0,*7A
1501268560.88,35872,19.38,73746.8,2.85,2.73,2.73,0,*79
1501268562.09,35873,19.38,73760.5,2.87,2.65,2.77,0,*79
1501268563.31,35874,19.38,73726.0,2.87,2.51,2.55,0,*79
1501268564.57,35875,19.38,73720.3,2.89,2.55,2.55,0,*72
1501268565.83,35876,19.38,73740.0,2.85,2.51,2.51,0,*7D
1501268567.09,35877,19.38,73768.8,2.85,2.51,2.59,0,*74
1501268568.3,35878,19.38,73762.3,2.87,2.55,2.61,0,*76
1501268569.55,35879,19.38,73760.3,2.89,2.51,2.55,0,*7A
1501268570.81,35880,19.38,73768.3,2.89,2.55,2.51,0,*7C
1501268572.06,35881,19.38,73758.5,2.89,2.55,2.55,0,*79
1501268573.32,35882,19.38,73762.3,2.89,2.55,2.51,0,*7E
1501268574.59,35883,19.38,73750.5,2.89,2.51,2.51,0,*7B
1501268575.85,35884,19.38,73736.0,2.89,2.43,2.51,0,*7F
1501268577.1,35885,19.38,73748.3,2.89,2.51,2.55,0,*79
1501268578.36,35886,19.38,73732.0,2.89,2.51,2.55,0,*7A
1501268579.59,35887,19.38,73712.8,2.91,2.59,2.59,0,*76
1501268580.8,35888,19.38,73726.5,2.91,2.59,2.65,0,*76
1501268581.99,35889,19.38,73750.5,2.91,2.65,2.65,0,*78
1501268583.21,35890,19.38,73748.8,2.91,2.69,2.69,0,*70
1501268584.44,35891,19.38,73752.5,2.91,2.69,2.69,0,*71
1501268585.64,35892,19.38,73746.8,2.91,2.65,2.69,0,*7E
1501268586.86,35893,19.38,73750.3,2.91,2.69,2.69,0,*73
1501268588.11,35894,19.38,73750.8,2.93,2.73,2.81,0,*7B
1501268589.34,35895,19.38,73760.5,2.95,2.81,2.81,0,*71
1501268590.57,35896,19.38,73756.8,2.93,2.91,2.85,0,*71
1501268591.82,35897,19.38,73762.5,2.93,2.85,2.81,0,*71
1501268593.05,35898,19.38,73756.3,2.95,2.51,2.51,0,*7C
1501268594.27,35899,19.31,73762.0,2.95,2.25,2.25,0,*7D
1501268595.52,35900,19.38,73756.0,2.93,2.25,2.21,0,*7E
1501268596.75,35901,19.31,73758.0,2.95,2.25,2.13,0,*78
1501268597.99,35902,19.38,73760.8,2.93,2.21,2.21,0,*78
1501268599.18,35903,19.38,73748.8,2.93,2.27,2.35,0,*7A
1501268600.41,35904,19.38,73736.5,2.93,2.35,2.39,0,*72
1501268601.61,35905,19.38,73738.8,2.95,2.35,2.39,0,*75
1501268602.86,35906,19.38,73750.5,2.93,2.39,2.59,0,*7A
1501268604.09,35907,19.38,73756.0,2.93,2.61,2.59,0,*76
1501268605.29,35908,19.38,73758.8,2.93,2.61,2.61,0,*72
1501268606.52,35909,19.38,73762.3,2.93,2.61,2.73,0,*70
1501268607.74,35910,19.38,73770.0,2.95,2.73,2.73,0,*7D
1501268608.96,35911,19.38,73768.5,2.95,2.73,2.73,0,*7C
1501268610.18,35912,19.38,73770.8,2.95,2.73,2.81,0,*72
1501268611.41,35913,19.38,73768.5,2.95,2.81,2.81,0,*7E
1501268612.64,35914,19.38,73768.0,2.95,2.81,2.85,0,*7D
1501268613.86,35915,19.38,73764.0,2.95,2.25,2.25,0,*78
1501268615.09,35916,19.38,73770.8,2.95,2.47,2.51,0,*7C
1501268616.34,35917,19.38,73770.8,2.97,2.55,2.55,0,*78
1501268617.59,35918,19.38,73766.5,2.97,1.71,1.71,0,*77
1501268618.81,35919,19.38,73752.0,2.95,1.67,1.67,0,*74
1501268620.04,35920,19.38,73754.0,2.95,2.09,2.09,0,*7E
1501268621.21,35921,19.38,73744.3,2.95,2.27,2.27,0,*7F
1501268622.38,35922,19.38,73744.8,2.95,2.35,2.35,0,*7C
1501268623.61,35923,19.31,73746.8,2.93,2.35,2.39,0,*77
1501268624.84,35924,19.31,73738.8,2.95,2.51,2.51,0,*7A
1501268626.07,35925,19.31,73742.3,2.95,2.47,2.59,0,*74
1501268627.3,35926,19.31,73760.0,2.95,2.51,2.51,0,*78
1501268628.47,35927,19.38,73748.8,2.95,2.35,2.35,0,*79
1501268629.69,35928,19.31,73702.8,2.95,2.25,2.21,0,*72
1501268630.89,35929,19.38,73712.0,2.95,2.27,2.39,0,*78
1501268632.14,35930,19.31,73738.8,2.93,2.51,2.47,0,*7E
1501268633.35,35931,19.31,73736.5,2.95,2.61,2.59,0,*75
1501268634.55,35932,19.31,73764.5,2.97,2.61,2.65,0,*7B
1501268635.78,35933,19.38,73752.5,2.95,2.59,2.59,0,*7C
1501268637.01,35934,19.38,73756.0,2.95,2.47,2.47,0,*7B
1501268638.23,35935,19.38,73752.5,2.95,1.89,1.85,0,*76
1501268639.42,35936,19.38,73756.3,2.93,1.41,1.41,0,*7F
1501268640.62,35937,19.38,73764.8,2.93,1.01,1.01,0,*7E
1501268641.87,35938,19.31,73766.0,2.93,0.91,0.91,0,*71
1501268643.09,35939,19.38,73778.8,2.91,0.87,0.79,0,*73
1501268644.35,35940,19.38,73766.3,2.89,1.09,1.09,0,*75
1501268645.56,35941,19.38,73764.5,2.87,1.17,1.05,0,*79
1501268646.8,35942,19.38,73762.3,2.87,1.21,1.21,0,*79
1501268648.0,35943,19.38,73762.5,2.85,1.41,1.41,0,*7A
1501268649.22,35944,19.31,73752.8,2.87,1.67,1.59,0,*72
1501268650.47,35945,19.31,73748.3,2.85,1.63,1.63,0,*7C
1501268651.72,35946,19.31,73736.5,2.85,1.67,1.67,0,*7F
1501268652.96,35947,19.38,73734.0,2.85,1.85,1.79,0,*7D
1501268654.21,35948,19.38,73752.3,2.85,2.01,2.01,0,*71
1501268655.47,35949,19.38,73748.5,2.85,1.97,2.01,0,*7C
1501268656.69,35950,19.38,73748.8,2.87,1.97,1.93,0,*7E
1501268657.92,35951,19.38,73746.3,2.87,2.05,2.05,0,*7B
1501268659.18,35952,19.38,73742.0,2.85,2.01,2.01,0,*7A
1501268660.39,35953,19.31,73724.3,2.87,1.89,1.89,0,*79
1501268661.63,35954,19.38,73722.0,2.85,1.79,1.85,0,*7F
1501268662.88,35955,19.38,73722.5,2.85,1.89,1.97,0,*72
1501268664.13,35956,19.38,73716.0,2.85,2.01,2.01,0,*7E
1501268665.37,35957,19.31,73718.5,2.85,1.79,1.85,0,*7C
1501268666.63,35958,19.38,73738.8,2.85,1.85,1.85,0,*70
1501268667.88,35959,19.38,73734.3,2.85,1.89,1.85,0,*7D
1501268669.09,35960,19.38,73736.8,2.85,1.75,1.79,0,*77
1501268670.29,35961,19.38,73738.8,2.83,1.67,1.79,0,*73
1501268671.47,35962,19.38,73720.8,2.83,1.75,1.75,0,*7F
1501268672.73,35963,19.38,73734.0,2.81,1.51,1.51,0,*7C
1501268673.95,35964,19.38,73728.5,2.83,1.89,1.89,0,*79
1501268675.17,35965,19.38,73724.5,2.83,2.01,1.97,0,*74
1501268676.4,35966,19.38,73728.8,2.83,2.09,2.09,0,*7B
1501268677.63,35967,19.38,73726.5,2.83,2.09,2.09,0,*7A
1501268678.89,35968,19.38,73732.8,2.85,2.17,2.25,0,*72
1501268680.12,35969,19.38,73734.0,2.83,2.25,2.25,0,*74
1501268681.34,35970,19.38,73738.0,2.83,2.25,2.25,0,*7C
1501268682.57,35971,19.38,73736.5,2.83,2.01,2.09,0,*75
1501268683.79,35972,19.38,73736.5,2.87,1.89,1.89,0,*7A
1501268685.04,35973,19.38,73738.0,2.85,1.67,1.63,0,*7D
1501268686.22,35974,19.38,73734.3,2.83,1.75,1.79,0,*74
1501268687.46,35975,19.38,73732.0,2.83,1.85,1.85,0,*79
1501268688.68,35976,19.38,73732.0,2.83,1.89,1.89,0,*7A
1501268689.91,35977,19.38,73730.3,2.83,2.09,2.09,0,*7B
1501268691.14,35978,19.31,73734.5,2.83,2.17,2.17,0,*74
1501268692.38,35979,19.38,73750.5,2.83,2.13,2.13,0,*75
1501268693.61,35980,19.38,73746.3,2.83,2.01,2.09,0,*7B
1501268694.84,35981,19.31,73734.3,2.83,1.85,1.85,0,*72
1501268696.07,35982,19.31,73742.8,2.83,1.51,1.51,0,*71
1501268697.27,35983,19.38,73736.3,2.81,1.41,1.41,0,*72
1501268698.54,35984,19.31,73746.3,2.81,1.29,1.21,0,*7D
1501268699.77,35985,19.31,73744.0,2.81,1.37,1.41,0,*75
1501268701.03,35986,19.31,73738.5,2.81,1.59,1.51,0,*7F
1501268702.28,35987,19.31,73730.3,2.81,1.93,1.93,0,*76
1501268703.54,35988,19.31,73746.5,2.81,2.05,2.09,0,*75
1501268704.8,35989,19.31,73738.8,2.81,2.05,2.13,0,*7F
1501268706.04,35990,19.31,73728.5,2.83,2.17,2.13,0,*76
1501268707.3,35991,19.31,73730.5,2.81,2.09,2.13,0,*7A
1501268708.56,35992,19.31,73748.8,2.81,2.13,2.13,0,*72
1501268709.82,35993,19.31,73740.8,2.81,2.05,2.05,0,*73
1501268711.07,35994,19.31,73742.0,2.81,1.59,1.59,0,*74
1501268712.27,35995,19.31,73744.3,2.81,1.41,1.41,0,*75
1501268713.53,35996,19.31,73738.5,2.81,1.29,1.29,0,*76
1501268714.79,35997,19.31,73736.8,2.81,1.37,1.47,0,*70
1501268716.02,35998,19.31,73748.0,2.79,1.63,1.59,0,*76
1501268717.27,35999,19.31,73744.3,2.81,1.63,1.71,0,*7A
1501268718.5,36000,19.31,73750.8,2.79,1.59,1.71,0,*7E
1501268719.68,36001,19.31,73746.5,2.75,1.79,1.79,0,*79
1501268720.92,36002,19.31,73744.8,2.79,1.97,2.05,0,*7E
1501268722.15,36003,19.31,73748.8,2.79,2.05,2.05,0,*77
1501268723.38,36004,19.31,73750.8,2.79,1.97,2.05,0,*78
1501268724.61,36005,19.31,73756.5,2.79,2.09,2.05,0,*7D
1501268725.84,36006,19.31,73756.5,2.79,2.09,2.09,0,*72
1501268727.1,36007,19.31,73746.3,2.81,2.09,2.09,0,*74
1501268728.36,36008,19.31,73740.5,2.81,2.09,2.09,0,*7B
1501268729.62,36009,19.31,73746.0,2.81,2.09,2.09,0,*7A
1501268730.87,36010,19.31,73758.3,2.81,2.13,2.21,0,*73
1501268732.13,36011,19.31,73762.3,2.81,2.25,2.25,0,*73
1501268733.34,36012,19.31,73766.0,2.81,1.83,1.83,0,*70
1501268734.59,36013,19.31,73760.5,2.81,1.93,1.97,0,*75
1501268735.85,36014,19.31,73748.0,2.81,2.05,2.09,0,*7A
1501268737.11,36015,19.31,73754.5,2.81,2.05,2.09,0,*7B
1501268738.34,36016,19.31,73746.0,2.83,2.25,2.17,0,*77
1501268739.57,36017,19.31,73752.0,2.83,2.25,2.17,0,*76
1501268740.83,36018,19.31,73750.3,2.81,2.09,2.13,0,*71
1501268742.07,36019,19.31,73750.5,2.83,2.17,2.17,0,*79
1501268743.33,36020,19.31,73758.8,2.81,2.09,2.09,0,*71
1501268744.56,36021,19.31,73758.3,2.83,2.01,2.01,0,*72
1501268745.82,36022,19.31,73756.8,2.81,2.05,2.09,0,*7F
1501268747.05,36023,19.31,73756.5,2.83,2.01,2.09,0,*78
1501268748.27,36024,19.31,73774.0,2.83,1.89,1.89,0,*77
1501268749.5,36025,19.31,73768.3,2.81,1.93,1.83,0,*75
1501268750.71,36026,19.31,73730.0,2.83,1.79,1.85,0,*76
1501268751.94,36027,19.31,73732.3,2.83,1.97,1.97,0,*74
1501268753.19,36028,19.31,73758.8,2.81,1.97,1.97,0,*79
1501268754.45,36029,19.31,73760.5,2.81,1.97,1.97,0,*78
1501268755.68,36030,19.31,73758.0,2.83,1.97,1.89,0,*7D
1501268756.88,36031,19.31,73760.0,2.83,1.75,1.67,0,*70
1501268758.13,36032,19.31,73740.5,2.81,1.59,1.59,0,*72
1501268759.38,36033,19.31,73746.3,2.81,1.71,1.71,0,*73
1501268760.65,36034,19.31,73744.8,2.81,1.85,1.85,0,*74
1501268761.91,36035,19.31,73740.3,2.81,1.93,1.85,0,*72
1501268763.16,36036,19.31,73744.5,2.81,1.93,1.93,0,*76
1501268764.42,36037,19.31,73732.5,2.81,1.93,1.93,0,*77
1501268765.64,36038,19.31,73728.3,2.83,2.01,2.01,0,*7A
1501268766.91,36039,19.31,73732.3,2.81,1.85,1.85,0,*79
1501268768.17,36040,19.31,73714.8,2.81,2.05,2.05,0,*77
1501268769.43,36041,19.31,73732.3,2.81,2.09,2.09,0,*76
1501268770.63,36042,19.31,73734.3,2.83,2.39,2.35,0,*7B
1501268771.8,36043,19.31,73716.5,2.83,2.35,2.35,0,*76
1501268773.01,36044,19.31,73744.8,2.83,2.25,2.27,0,*73
1501268774.26,36045,19.31,73728.8,2.81,2.21,2.13,0,*73
1501268775.5,36046,19.31,73746.5,2.83,2.13,2.17,0,*77
1501268776.73,36047,19.31,73758.3,2.83,2.13,2.17,0,*76
1501268777.94,36048,19.31,73742.3,2.83,2.27,2.17,0,*7E
1501268779.17,36049,19.31,73742.8,2.83,2.25,2.17,0,*7D
1501268780.43,36050,19.31,73752.8,2.81,2.13,2.17,0,*72
1501268781.64,36051,19.31,73752.8,2.83,2.27,2.25,0,*77
1501268782.89,36052,19.31,73750.8,2.85,2.25,2.25,0,*70
1501268784.12,36053,19.31,73746.8,2.85,2.27,2.25,0,*73
1501268785.3,36054,19.31,73746.3,2.87,2.27,2.31,0,*73
1501268786.5,36055,19.31,73758.0,2.87,2.31,2.43,0,*70
1501268787.7,36056,19.31,73750.0,2.85,2.35,2.35,0,*74
1501268788.93,36057,19.31,73754.5,2.85,2.25,2.27,0,*77
1501268790.18,36058,19.31,73738.0,2.85,2.13,2.01,0,*79
1501268791.45,36059,19.31,73738.3,2.85,2.17,2.17,0,*7B
1501268792.62,36060,19.31,73752.3,2.87,2.31,2.31,0,*73
1501268793.83,36061,19.31,73760.0,2.87,2.31,2.39,0,*7A
1501268795.07,36062,19.31,73766.0,2.87,2.17,2.13,0,*75
1501268796.32,36063,19.31,73772.3,2.85,1.63,1.51,0,*73
1501268797.56,36064,19.31,73770.8,2.87,1.09,1.09,0,*77
1501268798.81,36065,19.31,73758.0,2.85,1.17,1.25,0,*75
1501268800.05,36066,19.31,73758.0,2.83,1.29,1.29,0,*71
1501268801.28,36067,19.31,73758.5,2.83,1.55,1.51,0,*74
1501268802.55,36068,19.31,73758.3,2.81,1.85,1.85,0,*7D
1501268803.78,36069,19.31,73760.0,2.83,1.97,2.01,0,*72
1501268805.03,36070,19.31,73752.8,2.81,2.05,2.05,0,*74
1501268806.26,36071,19.38,73764.3,2.83,2.01,2.01,0,*77
1501268807.47,36072,19.31,73756.3,2.81,1.83,1.75,0,*7F
1501268808.72,36073,19.31,73764.5,2.81,1.71,1.71,0,*77
1501268809.97,36074,19.38,73770.0,2.81,1.59,1.59,0,*70
1501268811.17,36075,19.38,73768.5,2.81,1.41,1.41,0,*71
1501268812.44,36076,19.31,73758.3,2.81,1.13,1.09,0,*79
1501268813.68,36077,19.31,73744.5,2.75,1.25,1.21,0,*7C
1501268814.92,36078,19.31,73742.5,2.75,1.25,1.33,0,*70
1501268816.1,36079,19.38,73756.5,2.79,1.83,1.83,0,*7A
1501268817.33,36080,19.38,73752.0,2.79,2.09,2.09,0,*7C
1501268818.51,36081,19.38,73754.0,2.79,2.31,2.35,0,*79
1501268819.69,36082,19.38,73760.8,2.79,2.31,2.35,0,*7A
1501268820.89,36083,19.38,73758.8,2.79,2.43,2.35,0,*7E
1501268822.16,36084,19.31,73760.0,2.81,2.43,2.43,0,*7F
1501268823.33,36085,19.38,73770.3,2.83,2.31,2.35,0,*78
1501268824.59,36086,19.38,73764.8,2.81,2.13,2.09,0,*76
1501268825.82,36087,19.38,73768.5,2.83,2.01,2.09,0,*76
1501268827.08,36088,19.38,73756.8,2.81,2.21,2.25,0,*77
1501268828.28,36089,19.38,73744.0,2.83,2.25,2.27,0,*72
1501268829.45,36090,19.38,73754.0,2.83,2.35,2.35,0,*78
1501268830.66,36091,19.38,73756.5,2.83,2.35,2.39,0,*75
1501268831.89,36092,19.38,73756.5,2.83,2.39,2.39,0,*7A
1501268833.13,36093,19.38,73758.8,2.83,2.39,2.51,0,*75
1501268834.38,36094,19.38,73746.0,2.85,2.39,2.47,0,*73
1501268835.61,36095,19.38,73754.8,2.83,2.39,2.47,0,*74
1501268836.87,36096,19.38,73766.0,2.85,2.39,2.39,0,*78
1501268838.11,36097,19.38,73764.5,2.87,2.51,2.51,0,*7B
1501268839.31,36098,19.38,73762.5,2.85,2.27,2.35,0,*75
1501268840.57,36099,19.38,73748.3,2.85,2.17,2.17,0,*77
1501268841.78,36100,19.38,73756.3,2.87,2.27,2.25,0,*76
1501268842.98,36101,19.38,73756.8,2.87,2.31,2.39,0,*7D
1501268844.22,36102,19.38,73766.0,2.87,2.43,2.39,0,*7B
1501268845.45,36103,19.38,73768.3,2.87,2.43,2.39,0,*7A
1501268846.68,36104,19.38,73774.8,2.87,2.43,2.39,0,*7D
1501268847.88,36105,19.38,73776.3,2.87,2.27,2.21,0,*77
1501268849.08,36106,19.38,73776.3,2.85,2.27,2.27,0,*70
1501268850.28,36107,19.38,73774.3,2.87,2.21,2.27,0,*75
1501268851.51,36108,19.31,73756.8,2.87,2.17,2.21,0,*79
1501268852.75,36109,19.38,73778.5,2.87,2.17,2.17,0,*7D
1501268853.95,36110,19.38,73780.3,2.87,2.21,2.27,0,*73
1501268855.12,36111,19.31,73792.8,2.87,2.31,2.31,0,*74
1501268856.35,36112,19.38,73798.8,2.87,2.39,2.39,0,*77
1501268857.58,36113,19.38,73784.0,2.87,2.13,2.17,0,*72
1501268858.82,36114,19.31,73770.5,2.87,2.13,2.13,0,*71
1501268860.05,36115,19.31,73774.5,2.87,2.05,2.13,0,*77
1501268861.27,36116,19.31,73768.8,2.87,1.89,1.93,0,*78
1501268862.49,36117,19.38,73758.5,2.87,2.01,2.01,0,*72
1501268863.73,36118,19.38,73768.8,2.87,2.13,2.13,0,*7D
1501268864.92,36119,19.38,73762.8,2.87,2.21,2.31,0,*7D
1501268866.15,36120,19.31,73754.5,2.87,2.17,2.21,0,*73
1501268867.35,36121,19.31,73762.8,2.87,2.21,2.27,0,*71
1501268868.59,36122,19.38,73764.5,2.87,2.17,2.17,0,*74
1501268869.81,36123,19.38,73766.8,2.87,1.67,1.67,0,*75
1501268871.03,36124,19.31,73758.0,2.87,1.43,1.47,0,*76
1501268872.27,36125,19.38,73760.5,2.87,1.37,1.37,0,*73
1501268873.47,36126,19.31,73758.0,2.85,1.41,1.41,0,*72
1501268874.66,36127,19.31,73752.0,2.85,1.41,1.41,0,*73
1501268875.89,36128,19.31,73768.3,2.83,1.55,1.55,0,*7A
1501268877.1,36129,19.38,73768.3,2.83,1.67,1.75,0,*78
1501268878.28,36130,19.38,73762.0,2.83,1.75,1.75,0,*73
1501268879.5,36131,19.38,73754.8,2.83,1.85,1.89,0,*7E
1501268880.76,36132,19.31,73744.0,2.81,1.63,1.63,0,*73
1501268881.94,36133,19.38,73754.8,2.83,1.75,1.75,0,*70
1501268883.2,36134,19.31,73748.5,2.81,1.85,1.85,0,*75
1501268884.43,36135,19.31,73730.5,2.83,1.97,1.89,0,*79
1501268885.66,36136,19.38,73720.0,2.83,2.01,2.01,0,*75
1501268886.89,36137,19.38,73732.5,2.83,2.01,2.01,0,*74
1501268888.14,36138,19.31,73738.0,2.81,2.05,1.97,0,*71
1501268889.37,36139,19.31,73742.8,2.83,2.01,2.01,0,*7A
1501268890.61,36140,19.38,73750.0,2.83,2.17,2.13,0,*70
1501268891.84,36141,19.38,73734.0,2.83,2.25,2.17,0,*74
1501268893.04,36142,19.38,73756.8,2.83,2.27,2.25,0,*74
1501268894.24,36143,19.38,73758.0,2.83,2.25,2.27,0,*75
1501268895.42,36144,19.38,73754.8,2.83,2.27,2.27,0,*70
1501268896.63,36145,19.38,73742.5,2.83,2.27,2.25,0,*73
1501268897.83,36146,19.38,73742.0,2.83,2.25,2.27,0,*70
1501268899.03,36147,19.38,73738.5,2.83,2.27,2.39,0,*7C
1501268900.27,36148,19.38,73748.5,2.87,2.43,2.51,0,*7B
1501268901.5,36149,19.31,73766.3,2.87,2.39,2.43,0,*74
1501268902.73,36150,19.38,73774.8,2.87,2.43,2.39,0,*7C
1501268903.94,36151,19.38,73766.0,2.87,2.31,2.39,0,*78
1501268905.17,36152,19.38,73754.3,2.87,2.39,2.43,0,*7E
1501268906.4,36153,19.38,73768.0,2.87,2.43,2.43,0,*72
1501268907.63,36154,19.38,73770.0,2.87,2.43,2.43,0,*75
1501268908.89,36155,19.38,73774.8,2.85,2.39,2.43,0,*7B
1501268910.12,36156,19.38,73744.3,2.89,2.27,2.21,0,*7F
1501268911.37,36157,19.38,73762.0,2.89,2.21,2.21,0,*78
1501268912.57,36158,19.38,73760.5,2.89,2.27,2.27,0,*77
1501268913.82,36159,19.38,73764.3,2.89,2.21,2.21,0,*76
1501268915.07,36160,19.38,73764.5,2.89,2.05,2.01,0,*78
1501268916.25,36161,19.38,73758.3,2.87,1.79,1.79,0,*73
1501268917.49,36162,19.38,73772.5,2.87,1.33,1.33,0,*70
1501268918.72,36163,19.38,73762.3,2.87,1.55,1.59,0,*7D
1501268919.97,36164,19.38,73768.8,2.85,1.51,1.51,0,*74
1501268921.21,36165,19.38,73758.0,2.85,0.95,0.83,0,*72
1501268922.44,36166,19.38,73760.3,2.83,0.55,0.55,0,*70
1501268923.64,36167,19.38,73752.5,2.81,0.97,1.01,0,*4D
1501268924.87,36168,19.38,73744.5,2.83,1.55,1.51,0,*7A
1501268926.1,36169,19.38,73740.5,2.81,1.83,1.93,0,*7C
1501268927.36,36170,19.38,73744.5,2.81,1.93,1.97,0,*71
1501268928.59,36171,19.38,73754.8,2.83,2.09,2.09,0,*76
1501268929.85,36172,19.38,73774.5,2.81,2.09,2.13,0,*7C
1501268931.08,36173,19.38,73766.8,2.83,2.17,2.25,0,*75
1501268932.32,36174,19.38,73772.5,2.83,2.17,2.17,0,*73
1501268933.55,36175,19.38,73768.5,2.83,2.13,2.13,0,*72
1501268934.78,36176,19.31,73774.0,2.83,1.97,1.97,0,*71
1501268936.01,36177,19.38,73772.8,2.83,1.85,1.89,0,*7C